Montpelier, VT

10:43 AM EST on November 23, 2017 (GMT -0500)
Knapp State

Weather History for KMPV - January, 2012

Change the Weather History Date:

Saturday, January 14, 2012

  Actual Average Record
Temperature  
Mean Temperature 9 °F 16 °F  
Max Temperature 26 °F 26 °F 55 °F (1950)
Min Temperature -8 °F 7 °F -33 °F (1957)
Degree Days  
Heating Degree Days 56 49  
Month to date heating degree days 600 674  
Since 1 July heating degree days 3184 3822  
Cooling Degree Days 0 0  
Month to date cooling degree days 0  
Year to date cooling degree days 0  
Moisture  
Dew Point 2 °F    
Average Humidity 79    
Maximum Humidity 88    
Minimum Humidity 69    
Precipitation  
Precipitation 0.01 in 0.08 in 0.81 in (1992)
Month to date precipitation 0.69 1.03  
Year to date precipitation 0.69 1.03  
Sea Level Pressure  
Sea Level Pressure 29.87 in    
Wind  
Wind Speed 8 mph (NNW)    
Max Wind Speed 18 mph    
Max Gust Speed 24 mph    
Visibility 7 miles    
Events Snow    
T = Trace of Precipitation, MM = Missing Value Source: NWS Daily Summary

Daily Weather History Graph

Daily Weather History Graph

Search for Another Location

Airport or City:

Trip Planner

Search our weather history database for the weather conditions in past years. The results will help you decide how hot, cold, wet, or windy it might be!

Date:

Astronomy

Jan. 14, 2012 Rise Set
Actual Time 7:23 AM EST 4:35 PM EST
Civil Twilight 6:50 AM EST 5:07 PM EST
Nautical Twilight 6:14 AM EST 5:43 PM EST
Astronomical Twilight 5:40 AM EST 6:18 PM EST
Moon 11:09 PM EST (1/14) 9:51 AM EST (1/14)
Length of Visible Light 10h 17m
Length of Day
9h 12m
Waning Gibbous, 69% of the Moon is Illuminated
Jan 14
Waning Gibbous
Jan 16
Last Quarter
Jan 23
New
Jan 30
First Quarter
Feb 7
Full

Hourly Weather History & Observations

Time (EST) Temp. Windchill Dew Point Humidity Pressure Visibility Wind Dir Wind Speed Gust Speed Precip Events Conditions
12:30 AM 24.8 °F 16.1 °F 21.2 °F 86% 29.50 in 5.0 mi North 8.1 mph - N/A Snow Light Snow
12:51 AM 23.0 °F 14.7 °F 19.9 °F 88% 29.56 in 3.0 mi NW 6.9 mph - 0.01 in Snow Light Snow
1:51 AM 21.0 °F 10.6 °F 18.0 °F 88% 29.61 in 5.0 mi North 9.2 mph - 0.00 in Snow Light Snow
2:51 AM 19.0 °F 8.2 °F 15.1 °F 85% 29.64 in 2.5 mi NNW 9.2 mph - 0.00 in Snow Light Snow
3:24 AM 17.6 °F 6.4 °F 14.0 °F 86% 29.61 in 2.5 mi NW 9.2 mph - 0.00 in Snow Light Snow
3:51 AM 17.1 °F 6.6 °F 14.0 °F 88% 29.68 in 2.5 mi NNW 8.1 mph - 0.00 in Snow Light Snow
4:04 AM 17.6 °F 8.2 °F 12.2 °F 79% 29.63 in 2.0 mi NNW 6.9 mph - 0.00 in Snow Light Snow
4:34 AM 15.8 °F 2.7 °F 10.4 °F 79% 29.64 in 3.0 mi NW 11.5 mph 20.7 mph 0.00 in Snow Light Snow
4:47 AM 15.8 °F 2.7 °F 10.4 °F 79% 29.65 in 2.5 mi NW 11.5 mph - 0.00 in Snow Light Snow
4:51 AM 15.1 °F 1.1 °F 10.9 °F 84% 29.71 in 2.5 mi NW 12.7 mph - 0.00 in Snow Light Snow
5:16 AM 15.8 °F 2.7 °F 10.4 °F 79% 29.66 in 4.0 mi NW 11.5 mph - 0.00 in Snow Light Snow
5:28 AM 15.8 °F 2.7 °F 10.4 °F 79% 29.66 in 4.0 mi NW 11.5 mph - 0.00 in Snow Light Snow
5:51 AM 14.0 °F -0.2 °F 9.0 °F 80% 29.74 in 4.0 mi NW 12.7 mph 23.0 mph 0.00 in Snow Light Snow
6:51 AM 12.0 °F 0.5 °F 6.1 °F 77% 29.79 in 8.0 mi NNW 8.1 mph - 0.00 in Snow Light Snow
7:51 AM 9.0 °F -5.9 °F 3.0 °F 77% 29.84 in 10.0 mi NW 11.5 mph 23.0 mph 0.00 in   Overcast
8:51 AM 8.1 °F -8.4 °F 3.0 °F 80% 29.87 in 10.0 mi NW 13.8 mph 23.0 mph N/A   Partly Cloudy
9:51 AM 7.0 °F -6.6 °F 3.0 °F 84% 29.90 in 10.0 mi NNW 9.2 mph - N/A   Scattered Clouds
10:51 AM 7.0 °F -7.5 °F -0.0 °F 73% 29.92 in 10.0 mi NNW 10.4 mph 17.3 mph N/A   Scattered Clouds
11:51 AM 6.1 °F -5.6 °F -0.0 °F 76% 29.91 in 10.0 mi NW 6.9 mph - N/A   Clear
12:51 PM 8.1 °F -5.3 °F 1.9 °F 76% 29.91 in 10.0 mi NW 9.2 mph - N/A   Clear
1:51 PM 8.1 °F -4.3 °F -0.0 °F 70% 29.92 in 10.0 mi NNW 8.1 mph 17.3 mph N/A   Clear
2:51 PM 6.1 °F -8.7 °F -0.9 °F 73% 29.95 in 10.0 mi NNW 10.4 mph 18.4 mph N/A   Scattered Clouds
3:51 PM 6.8 °F -4.8 °F -0.4 °F 72% 29.89 in 10.0 mi NNW 6.9 mph - N/A   Clear
4:51 PM 3.9 °F -9.4 °F -2.9 °F 73% 30.00 in 10.0 mi NNW 8.1 mph - N/A   Clear
5:51 PM 1.9 °F -9.2 °F -2.9 °F 80% 30.04 in 10.0 mi North 5.8 mph - N/A   Clear
6:51 PM -0.4 °F -14.7 °F -5.8 °F 78% 29.98 in 10.0 mi North 8.1 mph - N/A   Clear
7:51 PM -2.0 °F -13.9 °F -7.1 °F 79% 30.10 in 10.0 mi North 5.8 mph - N/A   Clear
8:26 PM -2.2 °F -10.4 °F -7.6 °F 78% 30.02 in 10.0 mi NE 3.5 mph - N/A   Mostly Cloudy
8:51 PM -5.1 °F -15.8 °F -9.0 °F 83% 30.13 in 10.0 mi ENE 4.6 mph - N/A   Mostly Cloudy
9:06 PM -5.8 °F -14.5 °F -9.4 °F 84% 30.03 in 10.0 mi East 3.5 mph - N/A   Partly Cloudy
9:51 PM -6.0 °F - -9.9 °F 83% 30.15 in 10.0 mi Calm Calm - N/A   Partly Cloudy
10:13 PM -5.8 °F - -9.4 °F 84% 30.05 in 9.0 mi Calm Calm - N/A   Mostly Cloudy
10:32 PM -7.6 °F - -11.2 °F 84% 30.05 in 10.0 mi Calm Calm - N/A   Scattered Clouds
10:51 PM -6.0 °F -16.9 °F -11.0 °F 79% 30.15 in 10.0 mi NW 4.6 mph - N/A   Clear
11:31 PM -5.8 °F -14.5 °F -9.4 °F 84% 30.06 in 8.0 mi WNW 3.5 mph - N/A   Mostly Cloudy
11:40 PM -5.8 °F -18.4 °F -11.2 °F 77% 30.06 in 6.0 mi NW 5.8 mph - N/A   Haze
11:51 PM -6.0 °F -16.9 °F -9.9 °F 83% 30.16 in 4.0 mi NW 4.6 mph - N/A   Overcast